Weather History for KBYI - July, 2013

Change the Weather History Date:

Thursday, July 18, 2013

  Actual Average Record
Temperature  
Mean Temperature 73 °F 70 °F  
Max Temperature 92 °F 86 °F 101 °F (1951)
Min Temperature 53 °F 54 °F 41 °F (1980)
Degree Days  
Heating Degree Days 0 1  
Month to date heating degree days 0 20  
Since 1 June heating degree days 101 154  
Since 1 July heating degree days 0 20  
Cooling Degree Days 8 6  
Month to date cooling degree days 170 82  
Year to date cooling degree days 266 135  
Since 1 June cooling degree days 256 129  
Growing Degree Days 22 (Base 50)    
Moisture  
Dew Point 45 °F    
Average Humidity 46    
Maximum Humidity 77    
Minimum Humidity 14    
Precipitation  
Precipitation 0.00 in 0.01 in 0.17 in (1976)
Month to date precipitation 0.03 0.18  
Year to date precipitation 2.32 6.24  
Sea Level Pressure  
Sea Level Pressure 29.99 in    
Wind  
Wind Speed 5 mph (WSW)    
Max Wind Speed 12 mph    
Max Gust Speed 16 mph    
Visibility 10 miles    
Events      
T = Trace of Precipitation, MM = Missing Value Source: NWS Daily Summary

Daily Weather History Graph

Daily Weather History Graph

Search for Another Location

Airport or City:

Trip Planner

Search our weather history database for the weather conditions in past years. The results will help you decide how hot, cold, wet, or windy it might be!

Date:

Astronomy

Jul. 18, 2013 Rise Set
Actual Time 6:13 AM MDT 9:08 PM MDT
Civil Twilight 5:40 AM MDT 9:41 PM MDT
Nautical Twilight 4:58 AM MDT 10:23 PM MDT
Astronomical Twilight 4:08 AM MDT 11:12 PM MDT
Moon 5:09 PM MDT (7/18) 2:08 AM MDT (7/18)
Length of Visible Light 16h 01m
Length of Day
14h 54m
Waxing Gibbous, 78% of the Moon is Illuminated
Jul 18
Waxing Gibbous
Jul 22
Full
Jul 29
Last Quarter
Aug 6
New
Aug 14
First Quarter

Hourly Weather History & Observations

Time (MDT) Temp. Dew Point Humidity Pressure Visibility Wind Dir Wind Speed Gust Speed Precip Events Conditions
12:53 AM 63.0 °F 53.1 °F 70% 29.97 in 10.0 mi SSW 4.6 mph - N/A   Clear
1:53 AM 62.1 °F 51.1 °F 67% 29.97 in 10.0 mi South 4.6 mph - N/A   Clear
2:53 AM 60.1 °F 50.0 °F 69% 29.98 in 10.0 mi SW 3.5 mph - N/A   Clear
3:53 AM 57.9 °F 48.0 °F 70% 29.99 in 10.0 mi Calm Calm - N/A   Clear
4:53 AM 57.0 °F 48.0 °F 72% 29.99 in 10.0 mi SSW 3.5 mph - N/A   Clear
5:53 AM 54.0 °F 46.9 °F 77% 30.01 in 10.0 mi Calm Calm - N/A   Clear
6:53 AM 55.0 °F 46.9 °F 74% 30.03 in 10.0 mi Calm Calm - N/A   Clear
7:53 AM 61.0 °F 48.9 °F 64% 30.06 in 10.0 mi Calm Calm - N/A   Clear
8:53 AM 68.0 °F 50.0 °F 52% 30.07 in 10.0 mi Calm Calm - N/A   Clear
9:53 AM 73.0 °F 43.0 °F 34% 30.07 in 10.0 mi West 5.8 mph - N/A   Clear
10:53 AM 75.9 °F 43.0 °F 31% 30.06 in 10.0 mi West 5.8 mph - N/A   Clear
11:53 AM 80.1 °F 46.9 °F 31% 30.06 in 10.0 mi WSW 6.9 mph - N/A   Clear
12:53 PM 84.0 °F 46.9 °F 27% 30.04 in 10.0 mi West 4.6 mph - N/A   Clear
1:53 PM 87.1 °F 41.0 °F 20% 30.01 in 10.0 mi WSW 4.6 mph - N/A   Clear
2:53 PM 89.1 °F 39.0 °F 17% 29.99 in 10.0 mi WSW 4.6 mph - N/A   Clear
3:53 PM 91.0 °F 44.1 °F 20% 29.96 in 10.0 mi NNW 6.9 mph - N/A   Clear
4:53 PM 91.0 °F 35.1 °F 14% 29.94 in 10.0 mi Variable 4.6 mph - N/A   Clear
5:53 PM 90.0 °F 37.0 °F 15% 29.94 in 10.0 mi West 9.2 mph - N/A   Clear
6:53 PM 88.0 °F 37.0 °F 16% 29.93 in 10.0 mi West 11.5 mph - N/A   Clear
7:53 PM 81.0 °F 46.0 °F 29% 29.93 in 10.0 mi SW 9.2 mph - N/A   Clear
8:53 PM 73.0 °F 46.0 °F 38% 29.93 in 10.0 mi SSW 8.1 mph - N/A   Clear
9:53 PM 68.0 °F 48.9 °F 50% 29.94 in 10.0 mi South 8.1 mph - N/A   Clear
10:53 PM 62.1 °F 46.9 °F 58% 29.96 in 10.0 mi SSW 3.5 mph - N/A   Clear
11:53 PM 60.1 °F 42.1 °F 51% 29.96 in 10.0 mi Calm Calm - N/A   Clear